User: anonymous   Login
Location: Lima
(44.6384°N, 112.5920°W)
Time: 12:54:58
(UTC+00:00)
Language:

CUBEBUG 2 - Orbit

View from above orbital plane
View from above orbital plane
View from above satellite
View from above satellite

Ground track
Ground track

The orbit data is extracted from the following two-line orbital elements,

1 39440U 13066AA  24103.65966651  .00004390  00000-0  52987-3 0  9990
2 39440  97.8092  48.8068 0072495 127.2516 233.5339 14.82406885558622
Epoch (UTC): 12 April 2024 15:49:55
Eccentricity: 0.0072495
inclination: 97.8092°
perigee height: 571 km
apogee height: 672 km
right ascension of ascending node: 48.8068°
argument of perigee: 127.2516°
revolutions per day: 14.82406885
mean anomaly at epoch: 233.5339°
orbit number at epoch: 55862

The dashed part of the orbit path shows where the satellite is in the earth's shadow,  

DLR